Printer-friendly version

IAU Minor Planet Center

Minor Planet Center

MPEC 2000-J38: 2000 JX8

The following Minor Planet Electronic Circular may be linked-to from your own Web pages, but must not otherwise be redistributed electronically.


Read MPEC 2000-J37 Read MPEC 2000-J39


M.P.E.C. 2000-J38                                Issued 2000 May  9, 23:27 UT

     The Minor Planet Electronic Circulars contain information on unusual
         minor planets and routine data on comets.  They are published
   on behalf of Commission 20 of the International Astronomical Union by the
          Minor Planet Center, Smithsonian Astrophysical Observatory,
                          Cambridge, MA 02138, U.S.A.

             Prepared using the Tamkin Foundation Computer Network

             BMARSDEN@CFA.HARVARD.EDU or GWILLIAMS@CFA.HARVARD.EDU
          URL http://cfa-www.harvard.edu/iau/mpc.html  ISSN 1523-6714

                                   2000 JX8

Observations:
     K00J08X* C2000 05 02.23040 13 40 55.41 -10 06 07.8          18.9        704
     K00J08X  C2000 05 02.24273 13 41 03.23 -10 11 25.0          18.6        704
     K00J08X  C2000 05 02.25507 13 41 11.05 -10 16 41.2          18.8        704
     K00J08X  C2000 05 03.20826 13 54 58.97 -17 30 30.0          18.7        704
     K00J08X  C2000 05 03.21010 13 55 00.40 -17 31 21.8          18.5        704
     K00J08X  C2000 05 03.22115 13 55 09.13 -17 36 41.8          18.5        704
     K00J08X  C2000 05 03.22316 13 55 10.72 -17 37 41.0          18.5        704
     K00J08X  C2000 05 03.23415 13 55 19.38 -17 42 59.9          18.5        704
     K00J08X  C2000 05 03.23627 13 55 21.05 -17 44 01.3          18.2        704
     K00J08X  C2000 05 03.24695 13 55 29.51 -17 49 11.6          18.6        704
     K00J08X  C2000 05 03.24931 13 55 31.31 -17 50 19.0          18.5        704
     K00J08X  C2000 05 03.25965 13 55 39.51 -17 55 18.6          19.0        704
     K00J08X  C2000 05 04.26068 14 13 16.44 -26 17 11.9          18.3        704
     K00J08X  C2000 05 04.27278 14 13 28.42 -26 23 26.1          18.7        704
     K00J08X  C2000 05 04.28489 14 13 40.47 -26 29 41.1          18.6        704
     K00J08X  C2000 05 04.29697 14 13 52.46 -26 35 53.8          18.2        704
     K00J08X  C2000 05 04.30906 14 14 04.56 -26 42 04.7          18.2        704
     K00J08X  C2000 05 05.27801 14 35 14.22 -35 04 43.3          18.1        704
     K00J08X  C2000 05 05.29076 14 35 30.06 -35 11 18.3          18.3        704
     K00J08X  C2000 05 05.30337 14 35 45.85 -35 17 44.4          18.4        704

Observer details:
704 Lincoln Laboratory ETS, New Mexico.  Observers M. Blythe, F. Shelly,
    M. Bezpalko, M. Elowitz, R. Huber.  Measurers J. Stuart, H. Viggh,
    R. Sayer, J. B. Evans.  1.0-m f/2.15 reflector + CCD.

Orbital elements:
2000 JX8
Epoch 2000 Apr. 26.0 TT = JDT 2451660.5                 Williams
M 352.51836              (2000.0)            P               Q
n   0.51657124     Peri.  188.94319     -0.63203514     +0.77178251
a   1.5383290      Node    41.89850     -0.70436598     -0.53453646
e   0.3334618      Incl.    6.00651     -0.32311012     -0.34441623
P   1.91           H   25.4           G   0.15
From 20 observations 2000 May 2-5.

Ephemeris:
2000 JX8                 a,e,i = 1.54, 0.33, 6                   q = 1.0254
Date    TT    R. A. (2000) Decl.     Delta      r     Elong.  Phase     V
2000 05 06    14 53.82   -41 00.4    0.019    1.026   155.6    24.0    18.0
2000 05 07    15 24.44   -48 39.0    0.020    1.026   147.7    31.7    18.3
2000 05 08    16 01.04   -54 59.1    0.021    1.026   140.4    38.8    18.6
2000 05 09    16 43.06   -59 45.5    0.023    1.025   134.1    45.0    19.0
2000 05 10    17 28.37   -62 58.2    0.025    1.025   128.7    50.2    19.3
2000 05 11    18 13.57   -64 49.3    0.027    1.025   124.3    54.5    19.6
2000 05 12    18 55.34   -65 37.8    0.029    1.025   120.7    57.9    19.9
2000 05 13    19 31.63   -65 43.3    0.032    1.026   117.8    60.6    20.1
2000 05 14    20 01.95   -65 22.5    0.034    1.026   115.5    62.8    20.4
2000 05 15    20 26.79   -64 47.1    0.037    1.026   113.6    64.5    20.6
2000 05 16    20 47.03   -64 04.6    0.040    1.027   112.1    65.9    20.8
2000 05 17    21 03.57   -63 19.5    0.043    1.027   110.9    66.9    21.0
2000 05 18    21 17.17   -62 34.7    0.046    1.028   109.9    67.7    21.1
2000 05 19    21 28.45   -61 51.3    0.049    1.029   109.2    68.2    21.3
2000 05 20    21 37.88   -61 10.3    0.052    1.030   108.7    68.6    21.4
2000 05 21    21 45.85   -60 31.8    0.055    1.031   108.3    68.8    21.6
2000 05 22    21 52.62   -59 56.1    0.057    1.032   108.0    68.9    21.7
2000 05 23    21 58.41   -59 23.0    0.060    1.033   107.9    68.9    21.8
2000 05 24    22 03.40   -58 52.3    0.063    1.034   107.8    68.8    21.9
2000 05 25    22 07.71   -58 24.0    0.066    1.035   107.8    68.7    22.0
2000 05 26    22 11.45   -57 58.0    0.069    1.037   107.9    68.4    22.1

Gareth V. Williams           (C) Copyright 2000 MPC           M.P.E.C. 2000-J38

Read MPEC 2000-J37 Read MPEC 2000-J39


Our Web policy. Index to the CBAT/MPC/ICQ pages.


Valid HTML 4.01!